Regional Weather Roundup
Issued by NWS Goodland, KS

Home | Current Version | Previous Version | Graphics & Text | Print | Product List | Glossary On
Versions: 1 2 3 4 5 6 7 8 9 10 11 12 13 14 15 16 17 18 19 20 21 22 23 24 25 26 27 28 29 30 31 32 33 34 35 36 37 38 39 40 41 42 43 44 45 46 47 48 49 50
000
ASUS43 KGLD 180608
RWRGLD

GOODLAND FORECAST AREA HOURLY WEATHER ROUNDUP
NATIONAL WEATHER SERVICE GOODLAND KS
1100 PM MST WED DEC 17 2014

...OFFICIAL OBSERVATIONS...

CITY           SKY/WX    TMP DP  RH WIND       PRES   REMARKS
GOODLAND KS    LGT SNOW  24  23  96 CALM      30.06S FOG
HILL CITY KS   CLOUDY    26  25  96 E7        30.14S FOG
IMPERIAL NEB   CLOUDY    25  21  85 S6        30.08S FOG
MCCOOK NEB     LGT SNOW  25  24  96 SE3       30.12F VSB 1
AKRON CO       FOG       20  20 100 S8        29.99S VSB 1/4
BURLINGTON CO  LGT SNOW  25  22  88 SE3       30.03S FOG
LIMON CO       CLOUDY    18  16  92 CALM      29.99S
$$

...UNOFFICIAL OBSERVATIONS...

CITY           SKY/WX    TMP DP  RH WIND       PRES   REMARKS
GOVE KS          N/A     28  32 100 MISG        N/A
SHARON SPRINGS   N/A     26  25  95 CALM        N/A
TRIBUNE KS     CLOUDY    28  28 100 N7        30.07R VSB 1
KIT CARSON CO    N/A     26  24  92 MISG        N/A
$$


USA.gov is the U.S. government's official web portal to all federal, state and local government web resources and services.